Weather History for KCAK - June, 2013

Change the Weather History Date:

Thursday, June 13, 2013

  Actual Average Record
Temperature  
Mean Temperature 66 °F 67 °F  
Max Temperature 73 °F 78 °F 91 °F (1956)
Min Temperature 59 °F 57 °F 44 °F (1978)
Degree Days  
Heating Degree Days 0 2  
Month to date heating degree days 24 35  
Since 1 June heating degree days 24 35  
Since 1 July heating degree days 5826 6136  
Cooling Degree Days 1 4  
Month to date cooling degree days 40 41  
Year to date cooling degree days 146 83  
Since 1 June cooling degree days 40 41  
Growing Degree Days 17 (Base 50)    
Moisture  
Dew Point 60 °F    
Average Humidity 70    
Maximum Humidity 93    
Minimum Humidity 47    
Precipitation  
Precipitation 0.38 in 0.13 in 1.32 in (1960)
Month to date precipitation 3.37 1.66  
Year to date precipitation 15.63 17.39  
Snow  
Snow 0.00 in 0.00 in - ()
Month to date snowfall 0.0 0.0  
Since 1 June snowfall 0.0 0.0  
Since 1 July snowfall 47.2 47.5  
Snow Depth 0.00 in    
Sea Level Pressure  
Sea Level Pressure 29.67 in    
Wind  
Wind Speed 12 mph (NW)    
Max Wind Speed 23 mph    
Max Gust Speed 32 mph    
Visibility 8 miles    
Events Rain , Thunderstorm    
T = Trace of Precipitation, MM = Missing Value Source: NWS Daily Summary

Daily Weather History Graph

Daily Weather History Graph

Search for Another Location

Airport or City:

Trip Planner

Search our weather history database for the weather conditions in past years. The results will help you decide how hot, cold, wet, or windy it might be!

Date:

Astronomy

Jun. 13, 2013 Rise Set
Actual Time 5:53 AM EDT 8:58 PM EDT
Civil Twilight 5:19 AM EDT 9:32 PM EDT
Nautical Twilight 4:37 AM EDT 10:14 PM EDT
Astronomical Twilight 3:46 AM EDT 11:05 PM EDT
Moon 10:30 AM EDT (6/13) No Moon Set
Length of Visible Light 16h 12m
Length of Day
15h 05m
Waxing Crescent, 21% of the Moon is Illuminated
Jun 13
Waxing Crescent
Jun 16
First Quarter
Jun 23
Full
Jun 30
Last Quarter
Jul 8
New

Hourly Weather History & Observations

Time (EDT) Temp. Dew Point Humidity Pressure Visibility Wind Dir Wind Speed Gust Speed Precip Events Conditions
12:11 AM 71.6 °F 62.6 °F 73% 29.72 in 10.0 mi SSW 9.2 mph - 0.00 in   Mostly Cloudy
12:51 AM 71.1 °F 64.0 °F 78% 29.68 in 9.0 mi SSW 11.5 mph 19.6 mph 0.00 in   Mostly Cloudy
1:51 AM 69.1 °F 64.0 °F 84% 29.62 in 8.0 mi South 12.7 mph - N/A   Mostly Cloudy
2:41 AM 69.8 °F 64.4 °F 83% 29.66 in 5.0 mi WNW 21.9 mph 26.5 mph 0.00 in Rain , Thunderstorm Light Thunderstorms and Rain
2:46 AM 68.0 °F 64.4 °F 88% 29.67 in 1.8 mi WNW 23.0 mph 32.2 mph 0.05 in Rain , Thunderstorm Heavy Thunderstorms and Rain
2:51 AM 66.9 °F 64.0 °F 90% 29.66 in 1.0 mi West 12.7 mph 32.2 mph 0.14 in Rain , Thunderstorm Heavy Thunderstorms and Rain
3:22 AM 66.2 °F 64.4 °F 94% 29.64 in 4.0 mi West 12.7 mph - 0.15 in Rain , Thunderstorm Thunderstorms and Rain
3:51 AM 66.0 °F 64.0 °F 93% 29.57 in 8.0 mi South 10.4 mph - 0.19 in Rain Light Rain
4:51 AM 66.0 °F 63.0 °F 90% 29.54 in 10.0 mi SW 9.2 mph - 0.02 in   Scattered Clouds
5:51 AM 66.0 °F 62.1 °F 87% 29.52 in 10.0 mi SW 9.2 mph - N/A   Overcast
6:51 AM 64.9 °F 62.1 °F 90% 29.56 in 10.0 mi West 9.2 mph - N/A   Mostly Cloudy
7:51 AM 66.0 °F 62.1 °F 87% 29.58 in 10.0 mi WSW 10.4 mph - N/A   Mostly Cloudy
8:34 AM 66.2 °F 62.6 °F 88% 29.62 in 10.0 mi West 10.4 mph - 0.00 in   Overcast
8:51 AM 66.0 °F 63.0 °F 90% 29.60 in 10.0 mi WNW 11.5 mph - 0.00 in   Overcast
9:06 AM 66.2 °F 62.6 °F 88% 29.63 in 2.5 mi WNW 9.2 mph - 0.00 in Rain Light Rain
9:51 AM 64.9 °F 62.1 °F 90% 29.62 in 2.5 mi NNW 15.0 mph 23.0 mph 0.03 in Rain Light Rain
10:28 AM 64.4 °F 60.8 °F 88% 29.64 in 5.0 mi NNW 15.0 mph 23.0 mph 0.00 in   Overcast
10:51 AM 63.0 °F 60.1 °F 90% 29.64 in 5.0 mi North 13.8 mph - 0.00 in   Overcast
11:51 AM 63.0 °F 60.1 °F 90% 29.65 in 3.0 mi NNW 11.5 mph - 0.00 in Rain Light Rain
12:37 PM 64.4 °F 60.8 °F 88% 29.69 in 5.0 mi NNW 11.5 mph - 0.00 in   Overcast
12:51 PM 64.9 °F 60.1 °F 84% 29.68 in 5.0 mi NNW 12.7 mph - 0.00 in   Haze
1:15 PM 64.4 °F 60.8 °F 88% 29.70 in 7.0 mi North 11.5 mph - 0.00 in Rain Light Rain
1:51 PM 64.9 °F 59.0 °F 81% 29.69 in 7.0 mi NNW 16.1 mph 23.0 mph 0.00 in   Overcast
2:51 PM 68.0 °F 59.0 °F 73% 29.71 in 10.0 mi NW 12.7 mph - N/A   Mostly Cloudy
3:51 PM 69.1 °F 59.0 °F 70% 29.73 in 8.0 mi North 17.3 mph 24.2 mph N/A   Overcast
4:51 PM 71.1 °F 55.9 °F 59% 29.73 in 10.0 mi North 17.3 mph 25.3 mph N/A   Mostly Cloudy
5:51 PM 72.0 °F 54.0 °F 53% 29.74 in 10.0 mi NNW 16.1 mph 23.0 mph N/A   Scattered Clouds
6:51 PM 71.1 °F 50.0 °F 47% 29.75 in 10.0 mi North 15.0 mph 26.5 mph N/A   Scattered Clouds
7:51 PM 68.0 °F 50.0 °F 52% 29.79 in 10.0 mi NNW 16.1 mph 27.6 mph N/A   Scattered Clouds
8:51 PM 64.9 °F 53.1 °F 65% 29.82 in 10.0 mi North 13.8 mph 20.7 mph N/A   Scattered Clouds
9:51 PM 63.0 °F 53.1 °F 70% 29.84 in 10.0 mi North 10.4 mph 19.6 mph N/A   Scattered Clouds
10:51 PM 62.1 °F 54.0 °F 75% 29.85 in 10.0 mi North 8.1 mph - N/A   Scattered Clouds
11:51 PM 60.1 °F 55.0 °F 83% 29.86 in 10.0 mi NNW 6.9 mph - N/A   Scattered Clouds